This is the latest recevied weather packets stored in our database for station/object W7PLC. If no packets are shown the sender has not sent any weather packets the latest 10 day(s).
| Time | Temp. | Humidity | Pressure | Rain* | Wind** | Luminosity | Snow |
|---|---|---|---|---|---|---|---|
| 1777238558 | 23.33° C | 31% | 1006.8 hPa | 0 mm | - | 667 W/m² | - |
| 1777238254 | 23.33° C | 33% | 1007 hPa | 0 mm | - | 589 W/m² | - |
| 1777237952 | 22.78° C | 32% | 1006.9 hPa | 0 mm | - | 530 W/m² | - |
| 1777237647 | 22.78° C | 31% | 1006.9 hPa | 0 mm | - | 631 W/m² | - |
| 1777237345 | 23.33° C | 30% | 1006.8 hPa | 0 mm | - | 666 W/m² | - |
| 1777237043 | 23.89° C | 28% | 1006.8 hPa | 0 mm | - | 664 W/m² | - |
| 1777236740 | 23.33° C | 28% | 1006.7 hPa | 0 mm | - | 682 W/m² | - |
| 1777236438 | 23.33° C | 30% | 1006.9 hPa | 0 mm | - | 731 W/m² | - |
| 1777236136 | 23.33° C | 26% | 1007 hPa | 0 mm | - | 724 W/m² | - |
| 1777235832 | 23.89° C | 24% | 1006.7 hPa | 0 mm | - | 715 W/m² | - |
| 1777235529 | 23.89° C | 27% | 1006.7 hPa | 0 mm | - | 693 W/m² | - |
| 1777235225 | 22.22° C | 25% | 1006.9 hPa | 0 mm | - | 663 W/m² | - |
| 1777234921 | 22.22° C | 24% | 1006.8 hPa | 0 mm | - | 697 W/m² | - |
| 1777234617 | 22.78° C | 21% | 1006.8 hPa | 0 mm | - | 677 W/m² | - |
| 1777234316 | 22.78° C | 24% | 1007.1 hPa | 0 mm | - | 681 W/m² | - |
| 1777234013 | 23.89° C | 24% | 1007 hPa | 0 mm | - | 694 W/m² | - |
| 1777233710 | 23.33° C | 28% | 1007.1 hPa | 0 mm | - | 715 W/m² | - |
| 1777233405 | 22.78° C | 31% | 1007 hPa | 0 mm | - | 720 W/m² | - |
| 1777233100 | 22.22° C | 31% | 1007.2 hPa | 0 mm | - | 672 W/m² | - |
| 1777232796 | 22.78° C | 32% | 1007.1 hPa | 0 mm | - | 664 W/m² | - |
| 1777232495 | 21.67° C | 34% | 1007.1 hPa | 0 mm | - | 680 W/m² | - |
| 1777232193 | 21.67° C | 32% | 1007.2 hPa | 0 mm | - | 603 W/m² | - |
| 1777231889 | 20.56° C | 32% | 1007.5 hPa | 0 mm | - | 570 W/m² | - |
| 1777231586 | 21.67° C | 35% | 1007.4 hPa | 0 mm | - | 588 W/m² | - |
| 1777231282 | 20.56° C | 35% | 1007.3 hPa | 0 mm | - | 606 W/m² | - |
* Rain latest hour (hover to see other rain measurements)
** Current wind speed in m/s (hover to see current wind gust speed)